DELTA 1 DEB, 10656

Orbit data source: Space-Track

DELTA 1 DEB, 10656 is space debris in SSO originally from a launch on Thu, 29 Jul 1976 UTC launched from the Air Force Western Test Range (AFWTR). Debris objects in space refer to the collection of defunct objects orbiting the Earth. Examples of debris include non-operational satellites, rocket bodies, and fragments generated from explosions, collisions, or faulty payload assembly.

Loading next visibility...
Identifier
10656, 1976-077S
Orbit
SSO
Country
Flag of USUS
Related business
Manufacturer
Unknown
Mission
Spacecraft
Bus & Motor
Unknown
Mass
Unknown
Launch date (UTC)
1976-07-29 (49 years ago)
Launch vehicle
Unknown
Launch site
Air Force Western Test Range (AFWTR)
Object type
Payload
Rocket body
Debris
Shape & HBR
Unknown shape, 0.6 m
Radar Cross Section
Medium (>0.1 m² and <1 m²)

Expand to show TLE details & history
Last TLE update: 14 hours ago

TLE from 14 hours ago
0 DELTA 1 DEB
1 10656U 76077S   25292.28259773  .00000024  00000-0  51550-3 0  9993
2 10656 101.8311 266.0067 0076449 212.4537 257.9406 12.37095780221927
Epoch: 2025-10-19T06:46Z
TLE epoch observation values (Epoch: 2025-10-19T06:46:56.443Z)
Latitude
67.35796°
Longitude
-13.74621°
Altitude
1,543.476 km
Speed
7.095 km/s
True Right ascension
07h 43m 57s
True Declination
67° 14' 52"
Sunlit
Object was in daylight at epoch
Visualization orbit readout
Latitude
Unknown
Longitude
Unknown
Altitude
Unknown
Speed
Unknown
Apparent Right ascension
Unknown
Apparent Declination
Unknown
Sunlit
N/A
Visualization observer readout
Local Sidereal Time
15:55:38
Azimuth
Unknown
Elevation
Unknown
Doppler factor
Unknown
Orbital elements
Apogee altitude
1,576.861 km
Perigee altitude
1,456.153 km
Semi-major axis
7,894.644 km
Eccentricity
0.00764
Inclination
101.8311°
RAAN
266.0067°
Arg. of periapsis
212.4537°
True anomaly
257.08563°
Mean anomaly
257.9406°
Eccentric anomaly
257.51294°
Mean motion
3.09417 °/min
Orbital period
116.35 mins
BSTAR
0.0005155
Loading maneuver chart data...
Computing Atmospheric mass density...
Loading historical data...
Loading historical data...
Loading historical data...
Loading historical data...
Loading historical data...
Loading historical data...
Loading historical data...

Documentation

Showing up to 5 results
|